Location: Stoke Bliss
(52.2667°N, 2.5167°W)
Time: 21:27:30
(UTC+00:00)

Cosmos 2369 Rocket - Pass Details

Date: 03 March 2021
Orbit: 829 x 852 km, 71.0° (Epoch: 15 April)

Event Time Altitude Azimuth Distance (km) Brightness Sun altitude
Rises 21:26:48 0° 330° (NNW) 3,384 6.3 -31.9°
Reaches altitude 10° 21:29:28 10° 339° (NNW) 2,448 5.2 -32.2°
Enters shadow 21:32:56 29° 11° (NNE) 1,495 3.6 -32.6°
